Location: Arthez
(43.0833°N, 0.2500°W)
Time: 00:22:58
(UTC+00:00)

Cosmos 2123 Rocket - Pass Details

Date: 23 October 2021
Orbit: 961 x 992 km, 82.9° (Epoch: 27 November)

Event Time Altitude Azimuth Distance (km) Brightness Sun altitude
Rises 17:28:14 0° 358° (N) 3,716 6.9 -4.9°
Reaches altitude 10° 17:30:58 10° 6° (N) 2,762 6.2 -5.4°
Maximum altitude 17:36:53 40° 75° (ENE) 1,416 4.4 -6.4°
Drops below altitude 10° 17:42:44 10° 144° (SE) 2,730 6.1 -7.5°
Sets 17:45:24 0° 151° (SSE) 3,670 6.8 -8.0°
